Wind_Speed
87 87 87 88 88 89 89 90 90 91 92 93 93 94 95 95 96 97 98 98 99 100 101 101 102 103 104 104 105 106 106 107 107 108 108 109 109 109 110 110 110 110 110 110 110 110 110 110 110 110 110 110 110 110 110 110 110 111 110 110 110 110 109 109 108 108 107 107 107 107 107 107 106 106 106 105 105 105 104 104 104 104 104 103 103 104
88 88 89 89 90 90 91 92 92 93 94 95 95 96 97 98 98 99 100 101 101 102 103 103 104 105 105 106 107 107 108 108 109 109 109 110 110 111 111 112 112 112 112 112 112 111 111 111 111 111 111 111 111 111 111 111 111 111 111 111 111 110 110 110 109 108 108 108 107 107 107 107 107 107 107 107 106 106 105 105 105 105 105 105 105 105
90 90 91 91 91 92 93 94 95 95 96 97 98 98 99 100 101 101 102 102 103 104 104 105 105 106 107 107 108 109 109 110 110 110 111 111 112 112 113 113 113 113 113 113 112 112 112 112 111 111 111 111 111 111 111 111 111 111 111 111 111 110 110 110 109 109 108 108 108 108 108 108 108 108 107 107 107 106 106 106 106 105 105 105 105 106
91 92 93 93 94 94 95 96 97 98 98 99 100 101 101 102 102 103 103 104 104 105 105 106 106 107 108 108 109 110 110 111 111 111 112 112 113 113 114 114 114 114 114 114 113 113 112 112 111 111 110 110 110 110 110 110 110 110 110 110 110 110 110 109 109 108 108 108 108 108 108 107 107 107 107 107 107 106 106 106 105 105 105 105 105 105
93 94 95 95 96 97 98 98 99 100 101 101 102 102 103 103 104 104 105 105 105 106 106 107 107 107 108 109 110 110 111 112 112 112 113 113 113 114 114 114 114 114 114 114 113 113 112 111 111 111 110 110 109 109 109 109 109 109 109 109 109 109 109 108 108 108 108 108 107 107 107 107 106 106 106 106 106 106 106 105 105 105 105 105 105 105
95 96 96 97 98 99 99 100 101 102 102 103 103 104 104 105 105 106 106 106 106 106 107 107 108 108 109 109 110 111 111 112 112 113 113 113 114 114 114 114 114 114 113 113 112 112 111 111 110 110 109 108 108 107 107 107 107 106 106 107 107 107 107 107 107 107 107 107 107 107 106 106 105 105 105 105 105 105 104 104 104 104 104 104 104 104
97 98 98 99 100 100 101 102 102 103 103 104 104 105 105 105 106 106 106 107 107 107 108 108 108 108 109 109 110 110 111 112 112 113 113 114 114 114 114 113 113 113 112 112 111 110 110 109 109 108 108 107 106 105 105 104 104 104 104 104 104 105 105 106 106 106 106 106 106 105 105 104 104 104 103 103 103 103 103 103 103 103 103 103 103 103
99 100 100 101 102 102 103 103 103 104 104 105 105 106 106 106 107 107 107 107 108 108 108 109 109 109 109 109 109 110 111 111 112 112 113 113 113 113 112 112 112 111 111 110 110 109 108 108 107 106 106 105 104 103 102 102 101 101 101 101 102 102 103 103 104 105 105 104 104 104 103 103 102 102 102 102 101 101 101 101 102 102 102 102 102 102
101 101 102 102 103 104 104 105 105 105 105 105 106 107 107 107 108 108 108 108 108 108 109 109 109 109 109 109 109 109 110 110 111 111 111 112 111 111 110 110 109 109 109 108 108 107 106 106 105 105 104 103 102 101 100 99 99 98 98 98 99 99 100 101 102 102 102 102 102 101 101 101 101 100 100 100 100 99 99 99 100 100 100 100 100 101
102 103 104 104 104 105 105 106 106 106 106 107 107 108 108 109 109 109 109 109 109 108 108 108 109 108 108 108 108 108 109 109 109 110 110 110 109 109 108 107 107 106 106 105 105 104 104 104 103 103 102 100 99 98 98 97 96 96 95 95 96 96 97 98 99 99 99 99 99 99 99 98 98 98 98 97 97 97 97 97 98 98 98 98 99 99
104 104 105 105 106 106 106 107 107 107 108 108 108 109 109 109 109 109 110 110 109 109 108 108 107 107 107 108 108 108 108 107 108 108 107 107 107 106 105 105 104 103 103 102 102 101 101 101 101 100 99 97 96 96 95 94 94 93 92 92 92 93 94 95 95 96 96 96 96 96 95 95 95 95 95 95 95 95 95 95 95 95 96 96 97 97
105 106 106 106 107 107 108 108 108 108 108 109 109 109 110 109 109 109 109 110 109 109 108 107 107 106 107 107 107 107 106 106 105 105 105 104 103 103 102 101 100 100 99 98 98 98 98 98 97 96 95 94 93 92 92 91 91 90 89 89 89 89 90 91 91 92 92 92 92 92 91 91 91 91 91 91 91 91 92 92 92 93 93 94 94 95
106 106 107 107 108 108 108 109 109 109 109 109 109 110 110 110 109 109 109 109 108 108 107 106 106 106 105 106 106 106 105 104 103 102 101 101 100 99 98 97 97 96 95 94 94 94 94 94 93 92 91 90 89 89 88 88 87 87 86 86 86 86 86 87 87 87 87 87 87 87 87 87 86 86 87 87 87 88 88 88 89 89 90 90 91 92
107 107 107 108 108 109 109 109 109 109 109 109 109 109 109 109 109 109 108 108 107 106 106 105 105 105 104 104 104 104 103 102 101 99 98 97 96 95 94 93 92 91 91 90 90 90 90 89 89 88 87 86 85 85 85 84 84 83 83 82 82 82 82 82 82 82 82 82 82 82 82 82 82 82 82 82 83 83 84 84 85 85 86 87 87 88
108 108 108 109 109 109 109 109 109 109 110 109 109 108 108 108 108 107 107 107 106 105 104 104 103 103 103 103 102 102 101 100 98 96 94 93 92 91 90 89 88 87 86 86 86 86 85 85 84 84 83 82 81 81 81 80 80 79 79 79 78 78 78 78 77 77 77 77 77 77 77 77 77 77 77 78 78 79 79 80 80 81 82 82 83 84
108 108 109 109 109 109 109 109 109 109 109 109 108 108 107 107 106 106 105 105 104 103 102 102 101 101 100 100 99 99 98 97 94 92 90 89 88 87 86 85 84 83 82 82 82 82 81 80 80 79 78 78 77 77 76 76 76 75 75 75 74 74 73 73 73 73 73 73 73 73 72 72 73 73 73 74 74 74 75 75 76 76 77 78 78 79
109 109 109 109 109 109 109 108 108 108 108 108 108 107 106 106 105 104 104 103 102 101 100 99 99 98 98 97 96 95 94 92 90 88 86 85 84 84 83 82 80 79 78 78 77 77 76 76 75 74 74 74 73 73 72 72 72 72 71 71 70 70 69 69 69 69 69 69 69 69 68 69 69 69 69 70 70 70 71 71 71 72 72 73 74 74
109 109 109 109 109 108 108 107 107 107 107 107 107 106 105 104 104 103 102 101 100 99 98 97 95 94 94 93 92 90 89 87 85 83 82 81 81 81 80 78 76 75 74 73 73 73 72 71 71 70 70 70 69 69 68 68 68 68 67 67 66 66 66 65 65 65 65 65 65 65 65 65 65 65 66 66 66 66 67 67 67 68 68 68 69 70
109 109 108 108 108 107 107 106 106 106 106 106 106 105 105 103 102 101 100 99 98 97 95 94 92 91 90 89 88 86 84 82 80 78 77 77 78 78 77 75 73 71 70 69 69 68 68 67 67 67 66 66 65 65 65 65 64 64 63 63 62 62 62 62 62 62 61 61 61 62 62 62 62 62 62 62 62 62 63 63 63 64 64 64 65 65
109 108 108 107 107 106 106 105 105 104 104 104 104 104 103 102 101 100 99 97 96 94 92 91 89 88 86 85 83 82 80 78 76 74 73 74 74 74 73 71 69 67 67 66 65 64 64 63 63 63 63 62 62 62 61 61 60 60 60 59 59 59 59 58 58 58 58 58 58 58 58 58 58 59 59 59 59 59 59 59 60 60 60 61 61 62
108 108 107 106 106 105 105 104 104 103 103 103 102 102 101 100 99 98 96 95 93 91 89 87 86 84 83 81 80 78 76 74 72 71 70 70 71 70 69 67 65 64 64 63 62 61 61 60 60 60 59 59 59 58 58 58 57 57 56 56 56 55 55 55 55 55 55 55 55 55 55 55 55 55 55 55 55 56 56 56 56 57 57 58 58 59
108 108 107 106 105 104 104 103 103 102 102 101 101 100 99 98 97 95 93 92 90 88 86 84 83 81 80 78 76 74 72 70 69 67 67 67 67 67 65 63 62 61 61 60 59 59 58 57 57 56 56 56 56 55 55 54 54 53 53 53 53 53 52 52 52 52 52 52 52 52 52 52 52 52 52 52 52 53 53 53 53 54 54 55 55 55
108 107 106 105 104 104 103 103 102 102 101 100 99 98 96 95 94 92 90 88 86 85 83 81 79 78 76 75 73 71 69 67 65 64 64 64 64 63 62 60 60 59 59 58 57 56 55 55 54 54 53 53 53 52 52 52 51 51 50 50 50 50 49 49 49 49 49 49 49 49 49 49 49 49 49 49 49 49 50 50 50 51 51 51 52 52
107 106 105 105 104 104 103 102 102 100 99 98 96 95 93 91 90 88 86 84 83 81 79 77 76 75 73 71 69 68 66 64 63 62 61 61 61 60 59 58 57 57 56 55 54 53 53 52 51 51 51 51 50 50 49 49 48 48 48 47 47 47 47 46 46 46 46 46 46 46 46 46 46 46 46 46 46 46 46 47 47 48 48 49 49 49
106 106 105 104 104 103 102 101 100 99 97 96 94 92 90 88 86 84 82 80 79 77 75 74 73 71 70 68 67 65 63 62 60 59 59 59 58 57 56 55 55 55 54 53 52 50 50 50 49 49 49 48 48 47 47 46 46 46 45 45 45 44 44 44 43 43 43 43 43 43 43 43 43 43 43 43 43 43 44 44 44 45 45 45 46 47
106 105 104 104 103 102 101 99 98 96 95 93 91 89 87 85 83 81 79 77 76 74 73 71 70 68 67 65 64 62 61 59 58 57 57 56 55 55 54 53 53 52 51 50 49 48 48 47 47 47 47 46 46 45 45 44 44 43 43 42 42 42 41 41 41 41 41 40 40 40 40 40 40 40 40 40 40 40 41 41 41 42 42 43 43 44
105 105 104 103 102 101 99 98 96 94 92 90 88 86 84 82 80 78 76 75 73 71 70 68 67 66 64 63 62 60 59 57 56 55 54 54 53 52 52 51 50 50 49 48 47 46 45 45 45 45 45 44 44 43 43 42 41 41 40 40 40 39 39 39 38 38 38 38 38 37 37 37 37 37 37 38 38 38 38 38 39 39 39 40 41 41
105 104 103 102 101 99 97 95 93 91 90 88 85 83 81 79 77 75 73 72 70 69 67 66 64 63 62 61 59 58 56 55 54 53 52 51 51 50 50 49 48 47 47 45 44 44 43 43 43 43 43 43 42 41 41 40 39 38 38 38 37 37 37 36 36 35 35 35 35 35 35 35 35 35 35 35 35 35 36 36 36 37 37 37 38 38
103 103 102 100 98 96 94 92 90 88 86 84 82 80 78 76 74 72 70 69 67 66 65 63 62 61 60 59 57 56 55 53 52 51 50 49 49 48 47 47 46 45 44 43 42 42 42 42 42 42 41 41 40 39 38 38 37 36 36 35 35 35 34 34 34 33 33 33 33 33 33 33 33 33 33 33 33 33 34 34 34 34 35 35 35 35
101 100 99 97 95 93 91 89 87 85 83 81 79 77 75 73 71 69 67 66 65 64 63 61 60 59 57 56 55 54 53 52 50 49 48 48 47 46 45 45 44 43 42 41 41 40 40 40 40 40 40 39 38 37 36 36 35 34 34 34 33 33 32 32 31 31 31 31 31 31 31 31 31 31 31 31 31 31 32 32 32 32 32 32 32 33
98 97 95 93 91 89 87 85 83 81 79 77 75 73 72 70 68 66 65 64 62 61 60 59 58 57 55 54 53 52 51 50 48 47 46 46 45 44 44 43 42 42 40 39 39 38 38 39 39 39 38 37 36 36 35 34 33 33 32 32 31 31 30 30 30 29 29 29 29 29 29 29 29 29 29 29 29 29 29 30 30 30 30 30 30 30
95 93 91 89 87 85 83 81 79 77 76 74 72 70 68 67 65 64 62 61 60 59 58 57 56 55 53 52 51 50 49 48 47 45 44 44 43 43 42 41 41 40 39 38 37 36 37 37 37 37 37 36 35 34 33 32 32 31 31 30 30 29 29 28 28 28 27 27 27 27 27 27 27 27 27 27 27 27 27 27 27 27 27 27 27 27
91 89 86 84 82 81 79 77 75 74 72 70 69 67 66 64 63 62 60 59 58 57 56 55 54 53 51 50 49 48 47 46 45 44 43 42 41 41 40 39 39 38 37 36 36 35 35 35 36 36 35 34 33 33 32 31 30 30 29 28 28 27 27 26 26 26 26 25 25 25 25 25 25 25 25 25 25 25 25 25 25 25 25 25 25 25
86 84 82 80 78 77 75 74 72 70 69 67 66 64 63 62 61 60 58 57 56 55 54 53 52 51 49 48 47 46 45 44 43 42 41 40 39 39 38 38 37 36 36 35 34 34 34 34 34 34 33 33 32 31 31 30 29 28 28 27 26 26 25 25 24 24 24 24 24 24 24 23 23 23 23 23 24 24 23 23 23 23 23 23 23 23
82 80 78 77 75 73 72 70 69 67 66 65 63 62 61 60 59 58 56 55 54 53 52 51 50 48 47 46 45 44 43 42 41 40 39 38 38 37 37 36 35 35 34 34 33 33 32 33 33 32 32 32 31 30 30 29 28 27 27 26 25 24 24 23 23 23 23 22 22 22 22 22 22 22 22 22 22 22 22 22 22 22 22 22 22 22
78 76 75 73 72 70 69 68 66 65 63 62 61 60 59 58 57 55 54 53 52 51 50 49 48 46 45 44 43 42 41 40 40 39 38 37 36 36 35 34 34 33 32 32 32 31 31 31 31 31 31 30 30 29 29 28 27 26 25 25 24 23 23 22 22 21 21 21 21 20 20 20 20 20 20 20 21 21 21 21 21 21 21 21 21 21
75 73 72 70 69 68 66 65 64 62 61 60 59 58 57 56 54 53 52 51 50 49 48 47 46 44 43 42 41 40 39 39 38 37 36 35 35 34 33 33 32 32 31 31 30 30 30 30 30 30 30 29 29 28 28 27 26 25 25 24 23 22 22 21 21 20 20 19 19 19 19 18 19 19 19 19 19 20 20 20 20 20 20 20 20 20
72 70 69 67 66 65 64 63 61 60 59 58 57 56 55 53 52 51 50 49 48 47 46 45 44 42 41 40 39 38 38 37 36 36 35 34 33 33 32 32 31 30 30 29 29 29 29 29 29 29 29 28 28 27 26 26 25 24 24 23 22 21 21 20 20 19 19 18 18 18 18 17 17 18 18 18 19 19 19 19 19 19 19 19 19 19
69 67 66 65 64 63 61 60 59 58 57 56 55 53 52 51 50 49 48 47 46 45 44 43 42 41 40 39 38 37 36 36 35 34 34 33 32 31 31 30 30 29 28 28 27 27 27 27 27 27 27 27 27 26 25 25 24 24 23 22 22 21 20 19 19 18 18 17 17 17 17 17 17 17 17 18 18 18 18 19 19 19 19 19 19 19
66 65 64 62 61 60 59 58 57 56 55 54 53 51 50 49 48 47 46 46 44 43 42 41 40 39 38 37 36 35 35 34 34 33 32 32 31 30 29 29 28 27 27 26 25 25 25 25 25 25 25 26 26 25 25 24 23 23 22 22 21 20 19 19 18 17 17 16 16 16 16 16 16 17 17 17 17 18 18 18 18 18 18 18 18 18
63 62 61 60 59 58 57 56 55 54 53 51 50 49 48 47 47 46 45 44 43 42 41 40 39 37 37 36 35 34 33 33 32 32 31 30 30 29 28 27 27 26 25 25 24 23 23 23 23 23 24 24 24 24 24 24 23 23 22 21 21 20 19 18 17 17 16 16 16 16 16 16 16 16 17 17 17 17 18 18 18 18 18 18 18 17
61 60 59 58 57 56 55 54 53 51 50 49 48 47 46 46 45 44 43 42 41 40 39 38 37 36 35 34 33 33 32 31 31 30 30 29 28 28 27 26 25 24 24 23 23 22 22 21 21 22 22 22 22 23 23 23 23 22 22 22 21 20 19 18 17 16 16 16 15 15 16 16 16 16 16 17 17 17 18 18 18 18 18 18 17 17
59 58 57 56 55 54 53 52 50 49 48 47 46 46 45 44 43 42 42 41 40 39 38 37 36 35 34 33 32 31 31 30 30 29 28 28 27 26 25 25 24 23 23 22 22 21 21 20 20 20 20 21 21 21 22 22 22 22 22 22 21 20 19 18 17 16 16 15 15 15 15 16 16 16 16 16 17 17 17 18 18 18 18 18 18 17
57 56 55 54 53 52 51 49 48 47 46 45 45 44 43 42 42 41 40 39 38 37 37 36 35 34 33 32 31 30 29 29 28 27 27 26 26 25 24 24 23 22 22 21 21 20 20 20 20 19 19 20 20 20 20 21 22 22 22 22 22 21 20 19 18 17 16 16 15 15 15 16 16 16 16 16 17 17 17 17 18 18 18 18 18 17
55 54 53 52 51 50 49 47 46 45 44 44 43 42 42 41 40 39 38 38 37 36 35 34 34 33 32 31 30 29 28 27 27 26 25 25 24 24 23 23 22 22 21 21 20 20 20 20 20 19 19 19 19 19 19 20 20 21 22 22 22 22 22 21 20 19 18 17 16 16 16 16 16 16 16 16 17 17 17 17 18 18 18 18 18 18
53 52 51 50 49 48 47 46 45 44 43 42 41 41 40 39 39 38 37 36 35 35 34 33 32 31 31 30 29 28 27 26 25 25 24 23 23 22 22 21 21 21 20 20 20 20 19 19 19 19 19 19 19 19 19 19 20 20 21 21 22 22 22 22 21 20 19 18 17 17 16 16 16 16 16 16 17 17 17 18 18 18 19 19 18 18
51 50 49 48 47 46 45 44 43 42 41 40 40 39 39 38 37 36 36 35 34 33 33 32 31 30 29 28 27 27 26 25 24 24 23 22 22 21 21 20 20 20 20 19 19 19 19 19 19 19 19 19 19 19 19 19 19 20 20 21 21 22 22 23 22 22 21 20 19 18 18 17 16 16 16 16 17 17 18 18 19 19 19 19 19 18
50 49 48 47 46 44 43 42 41 40 40 39 38 38 37 36 36 35 34 34 33 32 32 31 30 29 28 27 26 25 25 24 23 23 22 21 21 20 20 20 19 19 19 19 19 18 18 18 18 19 19 19 19 19 19 19 19 20 20 20 21 22 22 23 23 23 23 22 21 20 19 18 17 17 16 16 17 17 18 18 19 19 19 19 18 19
48 47 46 45 44 43 42 41 40 39 38 38 37 37 36 35 34 34 33 32 32 31 30 29 29 28 27 26 25 24 24 23 22 22 21 20 20 20 19 19 19 19 19 18 18 18 18 18 18 18 18 18 18 18 18 18 19 19 20 20 21 22 22 23 23 23 24 23 23 22 21 20 19 18 17 17 17 17 18 18 18 18 18 18 18 19
46 45 44 43 42 41 40 39 38 38 37 37 36 35 35 34 33 32 32 31 30 30 29 28 27 26 25 25 24 23 23 22 22 21 21 20 20 19 19 19 19 19 19 18 18 18 18 18 18 18 18 18 18 17 17 17 18 18 19 20 21 21 22 22 23 24 24 24 24 24 23 22 21 20 18 18 17 17 17 17 18 18 18 18 18 19
45 44 43 42 41 40 39 38 37 36 36 35 35 34 33 33 32 31 31 30 29 28 27 27 26 25 24 23 23 22 22 21 21 20 20 20 20 20 20 20 19 19 19 19 18 18 18 18 18 18 18 18 18 17 17 17 17 18 18 19 20 21 21 22 23 24 24 25 25 25 25 24 23 22 20 19 18 18 17 17 17 17 17 17 18 18
Wind_Direction
296 296 296 296 295 295 295 295 295 295 294 294 294 294 294 293 293 293 293 292 292 292 292 291 291 291 290 290 290 289 289 288 288 287 287 286 286 285 285 284 284 283 283 282 282 281 281 281 280 280 280 279 279 279 278 278 277 277 276 276 275 275 274 273 273 272 272 271 271 270 269 269 268 268 267 266 266 265 264 264 263 262 262 262 261 261
296 296 296 296 296 295 295 295 295 295 294 294 294 294 293 293 293 293 292 292 292 292 291 291 291 290 290 290 289 289 288 288 288 287 287 286 286 285 285 284 284 283 283 282 282 282 281 281 280 280 280 279 279 279 278 278 277 277 276 276 276 275 275 274 273 273 272 272 271 271 270 269 269 268 268 267 266 266 265 265 264 263 263 262 262 261
296 296 296 296 296 296 295 295 295 294 294 294 294 294 293 293 293 292 292 292 292 291 291 291 291 290 290 289 289 289 288 288 287 287 286 286 285 285 285 284 284 284 283 283 282 282 282 281 281 280 280 279 279 279 278 278 277 277 276 276 276 275 275 274 274 273 273 272 271 271 270 270 269 268 268 267 267 266 266 265 265 264 263 263 262 262
296 296 296 296 296 296 295 295 295 295 294 294 294 294 293 293 293 292 292 292 292 291 291 291 290 290 289 289 289 288 288 287 287 287 286 286 285 285 285 285 284 284 284 283 283 283 282 282 281 281 280 280 279 279 278 278 277 277 276 276 276 275 275 274 274 273 273 272 271 271 270 269 269 268 268 268 267 267 266 265 265 264 264 263 263 262
296 296 296 296 296 295 295 295 295 294 294 294 294 294 293 293 293 292 292 292 291 291 291 290 290 289 289 289 288 288 288 287 287 287 286 286 286 285 285 285 284 284 284 284 283 283 283 282 282 281 281 280 279 279 278 278 277 277 276 276 276 275 275 274 274 273 273 272 271 270 270 269 269 268 268 267 267 267 266 266 265 265 264 263 263 262
296 296 296 296 295 295 295 295 295 294 294 294 294 294 293 293 293 292 292 292 291 291 290 290 289 289 289 288 288 288 288 287 287 287 287 286 286 286 285 285 285 285 284 284 284 283 283 282 282 281 281 280 279 279 278 277 277 277 276 276 275 275 275 274 274 273 272 271 271 270 270 269 269 268 268 267 267 266 266 265 265 265 264 263 263 262
296 296 296 295 295 295 295 295 295 294 294 294 294 294 293 293 293 292 292 291 291 291 290 290 289 289 288 288 288 288 288 288 287 287 287 287 286 286 286 285 285 285 285 284 284 284 283 283 282 281 281 280 279 279 278 278 277 276 276 275 275 274 274 273 273 272 272 271 270 270 269 269 268 268 267 267 266 266 265 265 265 264 264 263 263 262
296 296 296 295 295 295 295 295 295 295 295 295 294 294 294 293 293 292 292 291 291 291 290 290 289 289 289 289 289 288 288 288 288 288 287 287 286 286 286 286 286 285 285 285 285 284 284 283 283 282 281 280 280 279 278 278 277 276 276 275 274 274 273 273 272 271 271 271 270 270 269 269 268 268 267 267 266 266 265 265 264 264 264 263 263 262
296 296 296 296 296 296 296 296 296 295 295 295 295 294 294 293 293 292 292 291 291 291 291 290 290 290 290 290 289 289 289 289 288 288 287 287 287 287 286 286 286 286 286 285 285 285 284 284 283 282 281 281 280 279 279 278 277 276 275 275 274 273 273 272 272 271 271 270 270 269 269 269 268 268 267 267 266 266 265 265 264 264 263 263 263 262
297 297 297 297 297 297 297 297 296 296 296 296 295 295 294 294 293 293 293 292 292 291 291 291 291 291 291 291 290 290 289 289 288 288 288 287 287 287 287 287 286 286 286 286 285 285 284 284 283 282 282 281 281 280 279 278 277 276 276 275 274 273 273 272 271 271 271 270 270 269 269 269 268 268 267 267 266 266 265 265 265 264 264 263 263 262
298 298 298 298 298 297 297 297 297 296 296 296 295 295 294 294 294 293 293 293 293 293 293 292 292 292 292 292 291 290 290 289 289 288 288 288 288 288 287 287 287 286 286 286 285 285 284 283 283 282 282 281 281 280 280 279 278 277 276 275 274 273 273 272 272 271 271 270 270 270 269 269 269 268 268 267 267 266 266 265 265 264 264 263 263 262
299 299 299 298 298 298 298 297 297 297 296 296 296 295 295 294 294 294 294 294 294 294 294 294 293 293 293 292 292 291 290 290 289 289 289 289 288 288 288 287 287 287 286 286 285 284 284 283 282 282 282 281 281 280 280 279 278 278 277 276 275 274 273 272 272 272 271 271 271 271 270 270 269 269 268 268 267 267 266 265 265 264 264 263 263 262
299 299 299 299 298 298 298 298 297 297 296 296 296 295 295 295 295 295 295 295 295 295 295 295 294 294 293 293 292 292 291 290 290 290 289 289 289 289 288 288 287 287 286 286 285 284 283 283 282 282 282 282 281 281 280 279 279 278 277 276 275 275 274 273 273 272 272 272 272 271 271 270 270 269 269 268 267 267 266 265 265 264 263 263 262 262
300 299 299 299 299 298 298 298 297 297 297 296 296 296 296 296 296 296 295 295 295 295 295 295 295 294 294 293 293 292 292 291 291 290 290 290 290 289 289 288 287 287 286 285 285 284 283 283 283 283 282 282 282 281 280 280 279 278 278 277 276 275 275 274 274 273 273 272 272 272 271 270 270 269 268 268 267 266 265 265 264 263 263 262 262 261
300 300 300 299 299 298 298 298 297 297 297 297 296 296 296 296 296 296 296 296 296 296 295 295 295 294 294 294 293 293 292 292 292 291 291 291 290 290 289 288 287 286 286 285 285 284 284 284 283 283 283 283 282 281 281 280 279 279 278 277 277 276 275 275 274 274 273 273 272 271 271 270 269 269 268 267 266 265 265 264 263 263 262 262 261 261
300 300 300 299 299 298 298 298 298 298 297 297 297 297 297 297 297 296 296 296 296 296 296 295 295 295 294 294 294 293 293 292 292 292 292 292 291 290 289 288 287 286 286 285 285 285 284 284 284 284 283 283 282 281 281 280 279 279 278 278 277 276 276 275 275 274 273 273 272 271 270 270 269 268 267 266 266 265 264 264 263 262 262 261 261 261
300 300 299 299 299 298 298 298 298 298 298 298 298 298 297 297 297 297 297 297 296 296 296 296 296 295 295 294 294 293 293 293 293 293 293 293 291 290 289 288 287 287 287 286 286 285 285 285 284 284 283 283 282 281 281 280 280 279 278 278 277 277 276 275 275 274 273 273 272 271 270 269 268 268 267 266 265 265 264 264 263 262 262 261 261 260
300 300 299 299 299 299 299 299 299 299 299 299 298 298 298 298 298 297 297 297 297 297 297 296 296 296 295 295 294 294 293 293 294 294 294 293 292 290 289 289 288 288 288 287 287 286 286 285 285 284 283 283 282 281 281 280 280 279 279 278 278 277 276 276 275 274 273 273 272 271 270 269 269 268 267 266 266 265 264 264 263 263 262 261 261 260
300 300 300 299 299 299 299 299 299 299 299 299 299 299 299 298 298 298 298 298 298 297 297 297 297 296 296 295 295 294 294 294 294 294 294 293 292 290 290 289 290 289 289 288 287 287 286 286 285 284 284 283 282 282 281 281 280 280 279 278 278 277 276 276 275 274 273 273 272 271 270 270 269 268 267 267 266 265 264 264 263 263 262 261 261 260
301 300 300 300 300 300 300 300 300 300 300 300 299 299 299 299 299 299 299 299 299 298 298 298 297 297 296 296 295 295 295 295 295 294 294 293 292 291 290 291 291 291 290 289 288 287 287 286 285 285 284 284 283 282 282 281 280 280 279 279 278 277 276 276 275 274 273 272 272 271 270 269 269 268 267 267 266 265 264 264 263 262 262 261 260 260
301 301 301 301 301 301 301 301 301 301 300 300 300 300 300 300 300 299 299 299 299 299 299 298 298 297 297 296 296 296 296 296 295 295 294 293 292 291 291 292 292 291 290 289 288 288 287 287 286 285 285 284 283 283 282 281 281 280 279 279 278 277 276 275 275 274 273 272 272 271 270 269 269 268 267 266 266 265 264 263 263 262 261 260 260 259
302 302 302 302 302 302 302 302 301 301 301 301 300 300 300 300 300 300 300 300 300 300 299 299 299 298 297 297 297 297 296 296 296 296 295 294 293 292 293 293 293 292 290 290 289 289 288 287 287 286 285 284 284 283 282 282 281 280 279 279 278 277 276 275 275 274 273 272 272 271 270 269 268 268 267 266 265 265 264 263 262 262 261 260 260 259
303 303 303 303 303 303 302 302 302 301 301 301 301 301 301 301 301 301 301 300 300 300 300 300 299 298 298 298 298 297 297 297 297 296 295 294 293 293 294 294 293 292 291 290 290 290 289 288 288 287 286 285 284 283 282 282 281 280 280 279 278 277 276 276 275 274 273 272 272 271 270 269 269 268 267 266 265 265 264 263 262 261 261 260 259 259
303 303 303 303 303 303 303 302 302 302 302 302 301 301 301 301 301 301 301 301 301 300 300 300 299 299 299 299 298 298 298 298 297 297 296 295 294 294 294 294 293 292 291 291 291 291 290 289 288 287 286 285 284 283 283 282 281 281 280 279 278 277 277 276 275 274 274 273 272 271 270 270 269 268 267 266 265 264 264 263 262 261 260 260 259 258
304 304 304 304 304 303 303 303 302 302 302 302 302 302 302 302 302 302 301 301 301 301 301 300 300 300 299 299 299 299 299 299 298 297 296 296 295 295 295 294 293 293 292 292 292 291 290 290 288 287 286 285 284 284 283 282 282 281 280 279 279 278 277 276 276 275 274 273 272 271 271 270 269 268 267 266 265 264 263 263 262 261 260 259 259 258
304 304 304 304 304 303 303 303 303 303 303 303 303 303 303 303 302 302 302 302 302 301 301 301 300 300 300 300 300 300 299 299 298 297 297 296 296 296 295 294 294 293 293 293 292 292 291 290 289 288 287 286 285 284 284 283 282 281 281 280 279 278 277 277 276 275 274 273 272 272 271 270 269 268 267 266 265 264 263 262 261 260 259 259 258 257
305 305 305 304 304 304 304 304 304 304 303 303 303 303 303 303 303 303 303 303 302 302 302 301 301 301 301 300 300 300 300 299 299 298 298 297 297 296 295 295 294 294 294 293 293 292 291 290 289 288 287 286 285 284 284 283 283 282 281 280 280 279 278 277 276 275 274 273 272 271 270 269 268 267 266 265 264 263 262 261 260 260 259 258 258 257
305 305 305 304 304 304 304 304 304 304 304 304 303 303 304 303 303 303 303 303 303 302 302 302 301 301 301 301 301 300 300 300 299 299 298 298 297 297 296 295 295 294 294 294 293 292 291 290 289 287 287 286 285 285 284 284 283 283 282 281 280 279 278 277 276 275 274 273 272 271 270 269 268 267 265 264 264 263 262 261 260 259 258 257 257 257
305 305 305 304 304 304 304 304 304 304 304 304 304 304 304 304 304 304 303 303 303 302 302 302 302 302 302 301 301 301 301 300 300 300 299 299 298 297 296 296 295 295 294 294 293 292 291 290 288 287 287 286 286 285 285 284 284 283 282 281 280 279 278 277 276 275 274 273 272 270 269 268 267 266 265 264 263 262 261 260 259 258 258 257 256 256
305 305 304 304 304 304 304 304 304 304 304 304 304 304 304 304 304 303 303 303 303 303 302 302 302 302 302 302 302 301 301 301 300 300 300 299 298 298 297 296 296 295 295 294 294 293 291 290 289 288 287 287 286 286 286 285 284 283 282 281 280 279 278 277 276 275 274 272 271 270 269 268 266 265 264 263 262 261 260 260 259 258 257 257 256 255
305 304 304 304 304 304 304 304 304 304 304 304 304 304 304 304 304 304 303 303 303 303 303 303 303 302 302 302 302 302 302 301 301 301 300 299 298 298 297 296 296 295 295 294 294 292 291 290 289 288 288 287 287 287 286 285 284 283 282 281 280 279 278 277 276 275 273 272 271 270 268 267 266 265 264 263 262 261 260 259 258 257 257 256 255 254
305 304 304 304 304 304 304 304 304 304 304 304 304 304 304 304 304 304 303 303 303 303 303 303 303 303 302 302 302 302 302 302 301 301 300 299 298 298 297 296 296 296 295 294 293 292 291 290 289 288 288 288 287 287 286 285 284 283 282 281 280 279 278 277 275 274 273 271 270 269 268 267 266 264 263 262 261 260 259 258 257 256 255 254 254 253
304 304 304 304 304 304 304 304 304 304 304 304 304 304 304 304 304 304 304 304 303 303 303 303 303 303 303 303 303 303 302 302 301 301 300 299 298 298 297 297 296 296 295 295 294 292 291 290 289 289 288 288 287 287 286 285 284 283 282 281 280 279 278 276 275 274 272 271 269 268 267 266 265 264 262 261 260 259 258 257 256 255 254 253 252 251
304 304 304 304 304 304 304 304 304 304 304 304 304 304 304 304 304 304 304 304 304 303 303 303 303 303 303 303 303 303 302 302 301 300 300 299 298 298 297 297 296 296 295 295 294 292 291 290 289 288 288 288 287 286 286 285 284 283 282 281 280 278 277 276 274 273 271 270 269 268 266 265 264 263 262 260 259 258 257 255 254 253 252 250 249 248
305 305 305 305 305 304 304 304 304 304 304 304 304 304 304 304 304 304 304 304 304 303 303 303 303 303 303 303 303 303 302 301 301 300 300 299 298 298 297 297 296 296 295 294 294 292 291 290 289 288 288 287 287 286 285 284 284 283 282 280 279 278 276 275 273 272 270 269 268 266 265 264 262 261 260 259 258 256 255 253 252 251 249 248 247 246
305 305 305 305 305 305 304 304 304 305 304 304 304 304 304 304 304 304 304 304 303 303 303 303 303 303 304 303 303 303 302 301 301 300 300 299 298 298 297 296 296 296 295 294 293 292 291 290 289 288 288 287 287 286 285 285 283 283 281 280 279 277 275 274 272 271 269 267 267 265 263 262 260 259 258 257 256 254 253 251 250 248 247 246 245 244
306 306 305 305 305 305 305 305 305 305 305 304 305 304 304 304 304 304 304 304 303 303 303 303 304 304 304 303 303 302 302 301 301 300 300 299 298 297 297 296 296 295 295 294 293 292 291 290 289 289 288 287 287 286 286 285 284 282 281 280 278 276 274 273 271 269 267 266 264 263 261 259 258 257 255 254 253 252 250 249 248 246 245 244 243 242
306 306 306 305 305 305 305 305 305 305 305 304 304 304 304 304 304 304 304 303 303 303 303 304 304 304 304 304 303 302 301 301 300 300 300 299 298 298 297 296 296 295 294 293 292 292 291 290 290 289 289 288 287 286 286 285 284 282 281 279 278 276 274 272 270 268 266 264 262 259 258 256 254 253 252 251 250 249 248 247 246 244 243 243 242 241
306 306 306 305 305 305 305 305 305 305 304 304 304 304 304 304 304 304 303 303 303 303 304 304 304 304 304 303 303 302 301 301 300 300 299 299 298 297 297 296 296 295 294 293 292 291 291 290 289 289 289 289 288 287 286 285 284 282 281 279 278 275 273 271 269 266 264 262 259 257 254 252 250 249 248 247 247 247 246 246 245 244 242 242 241 241
306 306 305 305 305 305 305 305 305 305 304 305 305 304 304 304 304 303 303 303 303 304 304 304 304 303 303 303 302 302 301 300 300 300 299 298 298 297 297 296 295 295 294 293 292 291 291 290 290 289 289 288 288 287 287 285 284 282 281 279 277 275 273 271 268 265 263 260 257 254 251 249 247 246 245 244 244 244 244 245 244 243 242 241 240 240
306 306 305 305 305 305 305 305 304 304 305 305 305 304 304 304 304 303 303 303 304 304 304 304 304 303 303 302 302 301 301 300 300 299 299 298 298 297 297 296 295 295 294 293 292 291 290 289 289 288 288 288 288 287 286 285 284 283 281 279 277 275 273 271 268 265 262 258 255 252 249 247 245 243 242 242 242 242 243 244 244 243 243 242 241 240
306 305 305 305 305 305 304 304 305 305 305 305 304 304 304 304 303 303 303 304 304 304 304 304 303 303 303 302 302 301 301 300 300 299 299 298 298 298 297 296 295 295 294 293 292 291 289 288 287 286 286 286 286 286 286 285 285 284 282 281 279 277 274 271 268 265 261 258 254 251 248 245 243 241 241 240 240 241 242 243 244 244 244 243 242 242
305 305 305 305 305 304 305 304 305 305 305 305 304 304 304 303 303 303 304 304 304 304 303 303 303 303 302 302 301 301 301 300 300 299 299 298 298 297 297 296 295 294 293 292 291 290 289 288 286 285 284 284 284 284 284 285 285 284 283 282 281 280 277 274 270 266 262 258 254 250 247 244 242 240 239 238 238 239 241 242 243 244 244 244 244 243
305 305 305 305 305 305 305 305 305 305 305 305 304 304 303 303 303 304 304 304 304 303 303 303 303 302 302 302 302 301 301 300 300 299 299 298 298 297 297 296 295 294 294 293 291 291 290 288 286 284 283 282 282 281 282 282 283 283 283 283 283 282 280 277 273 269 264 259 255 250 247 244 241 239 237 237 236 237 238 240 242 243 244 245 245 245
305 305 305 305 305 305 305 305 305 305 305 304 304 304 303 303 303 304 304 303 304 303 303 303 303 302 302 301 301 301 300 300 300 299 298 298 298 297 296 296 295 295 294 293 292 291 290 289 288 286 285 283 282 280 280 280 280 281 281 281 282 281 281 279 276 273 269 263 258 253 249 244 241 238 235 234 233 234 235 237 239 241 243 244 245 246
305 305 305 305 305 305 305 305 305 305 305 304 304 303 303 303 303 303 303 303 303 303 302 302 302 302 301 301 301 301 301 300 299 299 298 297 297 296 295 295 294 294 293 293 292 291 290 290 288 287 286 285 283 282 280 279 278 278 278 278 279 279 279 279 278 276 273 269 264 258 252 247 242 238 234 232 230 229 231 232 234 237 240 242 244 246
305 305 305 305 305 305 305 305 305 305 304 304 303 303 303 303 303 303 303 303 302 302 302 302 302 302 301 301 301 301 301 300 299 298 298 297 296 295 294 293 293 292 292 291 290 290 289 288 287 286 286 285 284 283 281 280 278 276 276 275 275 275 276 276 277 276 275 272 268 264 258 252 246 241 236 231 229 227 226 228 230 233 236 239 241 243
305 305 305 305 305 305 305 305 305 305 304 304 303 303 303 303 303 303 302 302 302 302 301 301 301 301 301 301 301 301 301 300 299 298 297 296 295 294 294 293 292 291 291 290 289 288 288 287 286 285 284 282 282 281 280 278 276 275 274 272 272 272 272 272 273 273 273 272 270 267 264 259 254 247 241 235 230 227 225 224 226 228 231 234 237 239
305 305 305 305 305 305 305 305 305 304 304 303 303 303 303 303 303 303 302 302 302 301 301 301 301 301 301 301 301 301 301 300 300 299 298 297 296 295 294 294 293 293 292 291 291 290 289 288 287 286 284 283 281 279 278 276 274 273 271 270 269 268 268 268 268 268 269 269 269 268 266 263 260 254 248 241 235 229 226 224 224 224 226 229 232 236
305 305 305 305 305 305 305 305 304 304 304 303 303 303 303 303 302 302 302 302 301 301 301 301 301 301 301 302 301 302 301 301 300 299 298 298 298 297 297 297 296 296 296 296 295 295 294 293 291 290 288 286 284 281 278 275 273 271 269 267 266 265 264 264 263 263 264 265 265 266 266 265 262 259 255 249 243 236 231 226 223 222 222 225 228 232
305 305 305 305 305 305 305 305 304 304 303 303 303 303 303 302 302 302 302 301 301 300 300 300 301 301 301 302 302 301 301 301 300 300 301 300 301 300 300 300 300 300 301 300 300 299 299 297 296 294 292 290 287 285 282 278 274 271 268 265 264 262 261 260 259 259 260 260 261 262 262 263 262 261 259 256 250 245 238 232 227 223 221 223 226 229
Height
10401 10400 10397 10395 10393 10390 10386 10384 10381 10378 10375 10372 10370 10367 10365 10361 10358 10356 10353 10350 10348 10345 10342 10339 10336 10333 10330 10327 10323 10321 10318 10315 10313 10310 10308 10305 10301 10299 10296 10294 10291 10290 10288 10286 10284 10283 10281 10280 10278 10277 10275 10274 10272 10271 10270 10268 10266 10265 10263 10263 10262 10261 10261 10261 10262 10263 10263 10264 10264 10265 10265 10266 10266 10266 10266 10268 10268 10270 10271 10272 10273 10275 10276 10276 10278 10278
10393 10391 10390 10387 10385 10382 10378 10375 10373 10371 10368 10365 10361 10360 10357 10354 10351 10348 10345 10342 10339 10336 10333 10330 10327 10324 10321 10317 10314 10311 10308 10305 10302 10300 10297 10294 10291 10288 10285 10282 10280 10278 10275 10274 10272 10271 10270 10268 10267 10266 10265 10263 10261 10260 10258 10256 10254 10252 10251 10250 10249 10249 10249 10249 10250 10250 10251 10251 10252 10252 10253 10253 10253 10253 10254 10255 10256 10258 10259 10260 10261 10263 10264 10265 10266 10266
10386 10383 10381 10379 10377 10375 10371 10367 10365 10363 10360 10357 10353 10351 10348 10346 10342 10339 10336 10333 10330 10327 10325 10321 10318 10315 10311 10307 10304 10301 10297 10294 10291 10288 10286 10283 10280 10276 10273 10270 10268 10265 10263 10261 10260 10259 10258 10256 10255 10254 10253 10251 10250 10248 10246 10245 10242 10241 10239 10238 10238 10237 10236 10236 10237 10238 10238 10239 10240 10240 10240 10241 10241 10241 10242 10243 10244 10245 10246 10247 10249 10250 10251 10253 10254 10255
10379 10376 10373 10371 10369 10366 10363 10360 10356 10353 10351 10348 10345 10342 10340 10336 10333 10330 10327 10325 10321 10318 10315 10311 10308 10305 10301 10298 10294 10290 10286 10283 10280 10277 10275 10271 10268 10265 10261 10258 10256 10253 10251 10249 10248 10246 10245 10244 10243 10242 10241 10240 10238 10236 10235 10233 10231 10230 10228 10227 10226 10225 10225 10225 10225 10225 10226 10226 10226 10226 10227 10228 10228 10229 10230 10231 10231 10233 10233 10235 10236 10238 10240 10241 10242 10243
10371 10368 10365 10363 10361 10358 10355 10351 10348 10345 10342 10339 10336 10333 10330 10327 10323 10320 10318 10315 10312 10309 10305 10302 10298 10295 10292 10288 10284 10280 10276 10273 10269 10266 10263 10260 10257 10254 10250 10247 10244 10241 10239 10237 10236 10234 10233 10231 10230 10229 10228 10226 10226 10225 10223 10221 10220 10219 10218 10216 10215 10214 10213 10213 10212 10212 10213 10213 10213 10213 10214 10215 10215 10216 10218 10218 10220 10220 10221 10223 10224 10225 10227 10229 10230 10231
10364 10361 10358 10355 10353 10350 10346 10343 10340 10336 10333 10330 10327 10325 10321 10318 10314 10310 10307 10304 10301 10299 10295 10292 10288 10285 10282 10278 10274 10270 10266 10263 10258 10255 10252 10248 10245 10242 10238 10235 10232 10230 10228 10225 10223 10222 10221 10220 10218 10216 10215 10214 10213 10212 10211 10210 10209 10208 10207 10206 10205 10203 10201 10201 10200 10199 10199 10199 10200 10200 10201 10202 10203 10204 10205 10206 10207 10208 10209 10210 10211 10213 10215 10216 10217 10219
10356 10353 10350 10348 10344 10341 10338 10335 10331 10328 10325 10321 10318 10315 10311 10308 10305 10301 10297 10294 10291 10288 10285 10281 10278 10275 10272 10269 10265 10260 10256 10252 10248 10245 10241 10236 10233 10230 10226 10223 10221 10218 10216 10213 10211 10210 10208 10207 10205 10204 10202 10201 10201 10200 10200 10199 10198 10197 10196 10195 10194 10192 10190 10189 10187 10186 10186 10186 10186 10188 10188 10190 10191 10192 10193 10194 10195 10196 10198 10198 10200 10200 10201 10203 10205 10206
10347 10344 10341 10339 10336 10332 10328 10325 10322 10319 10316 10311 10307 10303 10300 10296 10293 10290 10287 10284 10280 10276 10273 10270 10266 10264 10261 10259 10255 10251 10246 10241 10237 10233 10230 10225 10221 10218 10215 10212 10210 10207 10205 10202 10200 10198 10196 10195 10193 10191 10189 10188 10188 10188 10187 10187 10186 10186 10185 10184 10183 10181 10179 10177 10175 10173 10173 10173 10174 10175 10176 10177 10178 10180 10181 10182 10183 10185 10186 10187 10188 10189 10190 10191 10193 10194
10339 10335 10331 10328 10326 10323 10318 10313 10310 10307 10306 10302 10297 10293 10289 10285 10281 10277 10275 10273 10270 10266 10263 10259 10255 10252 10250 10247 10244 10240 10236 10231 10226 10221 10217 10213 10210 10206 10204 10201 10200 10197 10194 10191 10188 10186 10184 10181 10180 10177 10176 10176 10175 10175 10175 10175 10175 10173 10173 10172 10171 10169 10167 10165 10163 10162 10162 10162 10163 10163 10165 10166 10167 10168 10169 10171 10172 10173 10175 10176 10176 10178 10179 10180 10181 10183
10329 10326 10323 10318 10315 10312 10309 10304 10298 10295 10293 10290 10286 10281 10278 10274 10270 10266 10262 10259 10257 10255 10253 10250 10246 10242 10238 10235 10231 10228 10225 10221 10215 10210 10206 10202 10199 10196 10193 10191 10189 10186 10184 10181 10178 10175 10173 10170 10167 10165 10165 10164 10163 10163 10163 10162 10161 10161 10161 10161 10160 10158 10156 10154 10152 10151 10151 10151 10152 10153 10153 10155 10156 10157 10159 10160 10161 10163 10164 10165 10166 10168 10168 10170 10171 10172
10319 10315 10312 10308 10305 10301 10298 10294 10290 10285 10282 10279 10274 10269 10265 10262 10260 10257 10252 10247 10244 10242 10241 10238 10235 10232 10228 10224 10219 10215 10211 10208 10204 10200 10195 10191 10188 10186 10183 10180 10178 10176 10173 10171 10168 10165 10161 10158 10155 10154 10153 10153 10152 10151 10151 10150 10150 10150 10150 10149 10148 10146 10145 10143 10142 10141 10141 10141 10142 10143 10143 10145 10146 10148 10149 10150 10151 10153 10154 10155 10156 10158 10159 10160 10161 10161
10309 10306 10302 10298 10294 10290 10286 10282 10278 10275 10271 10268 10264 10258 10253 10249 10247 10246 10243 10238 10233 10230 10229 10226 10223 10220 10216 10213 10208 10202 10198 10195 10192 10188 10185 10181 10178 10176 10173 10170 10168 10165 10163 10160 10158 10154 10151 10147 10145 10143 10143 10143 10142 10141 10140 10139 10138 10138 10138 10138 10137 10136 10135 10133 10132 10131 10131 10132 10133 10134 10135 10136 10138 10139 10140 10141 10142 10143 10144 10145 10146 10148 10148 10150 10150 10151
10300 10296 10293 10288 10284 10280 10275 10271 10267 10263 10260 10257 10253 10249 10244 10239 10236 10233 10231 10226 10223 10220 10218 10216 10212 10208 10204 10200 10195 10190 10186 10183 10180 10178 10175 10172 10169 10166 10163 10160 10158 10155 10153 10150 10146 10143 10140 10137 10135 10134 10133 10133 10133 10131 10130 10129 10128 10128 10128 10127 10126 10125 10125 10124 10123 10123 10123 10124 10125 10125 10126 10127 10128 10130 10131 10131 10132 10133 10134 10135 10136 10137 10138 10140 10140 10141
10290 10286 10282 10278 10273 10269 10265 10261 10258 10253 10248 10245 10242 10239 10235 10230 10226 10223 10220 10216 10212 10209 10208 10205 10201 10197 10192 10188 10183 10178 10174 10170 10168 10167 10165 10163 10160 10156 10153 10150 10147 10145 10143 10139 10136 10133 10131 10128 10126 10125 10125 10125 10123 10122 10121 10120 10119 10118 10118 10117 10116 10116 10116 10116 10116 10115 10116 10116 10116 10117 10118 10118 10120 10120 10121 10121 10122 10123 10124 10125 10126 10127 10128 10130 10131 10131
10280 10276 10272 10267 10262 10258 10255 10251 10247 10243 10238 10234 10231 10228 10225 10221 10216 10213 10210 10206 10202 10199 10197 10194 10190 10186 10182 10177 10173 10168 10163 10159 10156 10156 10155 10153 10150 10146 10143 10140 10137 10135 10133 10130 10126 10124 10122 10121 10119 10118 10116 10116 10115 10113 10111 10111 10110 10109 10108 10108 10108 10108 10107 10107 10107 10107 10107 10108 10108 10108 10109 10110 10111 10111 10111 10111 10112 10113 10114 10115 10116 10117 10119 10120 10121 10123
10270 10266 10261 10256 10252 10248 10245 10241 10237 10233 10227 10223 10220 10217 10214 10210 10206 10203 10200 10196 10192 10189 10186 10183 10180 10176 10171 10167 10163 10158 10153 10149 10146 10146 10146 10143 10139 10135 10132 10129 10128 10126 10125 10121 10118 10116 10115 10113 10111 10110 10109 10107 10106 10105 10103 10102 10101 10100 10100 10100 10100 10100 10100 10100 10099 10099 10099 10099 10100 10100 10101 10101 10102 10102 10103 10103 10103 10104 10105 10106 10107 10108 10110 10111 10113 10114
10260 10256 10251 10246 10242 10238 10235 10231 10227 10222 10217 10213 10210 10206 10203 10200 10196 10193 10190 10186 10182 10179 10176 10173 10170 10166 10161 10156 10152 10149 10145 10141 10138 10138 10137 10134 10129 10124 10121 10119 10118 10118 10116 10113 10111 10108 10107 10106 10104 10103 10101 10100 10098 10096 10096 10095 10093 10093 10092 10092 10092 10091 10091 10091 10091 10091 10091 10091 10091 10091 10093 10093 10093 10094 10094 10095 10095 10096 10096 10098 10099 10100 10102 10103 10105 10106
10249 10245 10241 10236 10232 10228 10225 10221 10218 10213 10208 10203 10198 10195 10192 10189 10186 10183 10180 10176 10172 10169 10166 10163 10160 10156 10152 10147 10142 10139 10137 10134 10131 10130 10129 10125 10119 10114 10111 10110 10110 10110 10109 10106 10103 10101 10100 10098 10096 10095 10093 10092 10091 10090 10088 10087 10086 10086 10085 10085 10085 10085 10085 10084 10084 10083 10083 10084 10084 10084 10085 10085 10086 10086 10086 10087 10088 10089 10090 10090 10091 10093 10095 10096 10098 10099
10238 10235 10231 10226 10222 10218 10214 10211 10208 10204 10199 10193 10188 10185 10181 10178 10175 10172 10169 10166 10162 10159 10156 10153 10150 10146 10143 10138 10134 10130 10129 10127 10125 10123 10121 10116 10110 10105 10103 10103 10103 10103 10101 10098 10096 10095 10093 10091 10090 10088 10086 10085 10084 10083 10081 10081 10080 10080 10079 10078 10078 10078 10078 10077 10077 10077 10077 10077 10077 10077 10077 10078 10078 10079 10080 10080 10081 10082 10083 10084 10085 10086 10087 10088 10090 10091
10227 10223 10220 10216 10213 10209 10205 10200 10197 10193 10190 10185 10180 10175 10171 10167 10165 10162 10158 10155 10152 10149 10146 10143 10140 10136 10133 10129 10125 10123 10121 10120 10118 10116 10113 10108 10102 10098 10096 10096 10096 10095 10093 10091 10089 10088 10086 10085 10083 10081 10080 10078 10077 10076 10075 10075 10074 10073 10073 10072 10072 10071 10071 10071 10071 10071 10070 10070 10071 10071 10071 10071 10071 10072 10073 10074 10075 10076 10076 10078 10078 10080 10081 10082 10083 10085
10217 10212 10208 10205 10203 10200 10195 10190 10186 10183 10179 10175 10171 10166 10161 10158 10155 10152 10149 10146 10143 10140 10137 10135 10131 10127 10124 10120 10117 10115 10113 10112 10110 10108 10105 10100 10095 10091 10090 10091 10090 10088 10085 10083 10082 10081 10080 10078 10076 10075 10074 10072 10071 10070 10069 10068 10068 10067 10067 10066 10066 10065 10065 10065 10065 10065 10065 10065 10065 10065 10065 10065 10066 10066 10067 10068 10068 10069 10070 10071 10072 10073 10074 10075 10076 10078
10206 10202 10198 10195 10191 10188 10184 10180 10176 10172 10169 10166 10161 10157 10153 10150 10146 10142 10139 10136 10134 10131 10129 10126 10122 10118 10115 10111 10109 10108 10106 10105 10103 10101 10098 10093 10088 10085 10085 10085 10084 10081 10078 10077 10076 10075 10074 10072 10071 10069 10068 10066 10065 10064 10063 10063 10062 10061 10061 10061 10060 10060 10060 10059 10059 10059 10059 10059 10059 10059 10060 10060 10060 10061 10061 10062 10063 10063 10064 10065 10066 10067 10068 10069 10071 10071
10195 10191 10188 10184 10181 10177 10173 10170 10166 10162 10159 10156 10152 10148 10145 10141 10138 10135 10131 10129 10126 10123 10120 10116 10113 10110 10106 10104 10102 10100 10099 10098 10096 10094 10090 10086 10082 10080 10080 10079 10077 10075 10072 10071 10070 10069 10068 10066 10065 10063 10062 10060 10060 10058 10058 10057 10057 10056 10056 10055 10055 10055 10055 10054 10054 10054 10054 10054 10054 10054 10054 10055 10055 10055 10056 10056 10057 10058 10059 10060 10060 10061 10063 10064 10065 10066
10185 10181 10178 10174 10171 10167 10164 10160 10156 10152 10149 10146 10143 10139 10136 10133 10131 10128 10125 10122 10118 10115 10111 10108 10105 10102 10099 10097 10095 10093 10092 10091 10090 10087 10084 10080 10077 10075 10075 10073 10071 10068 10066 10066 10065 10064 10063 10061 10060 10058 10056 10055 10054 10053 10053 10052 10051 10051 10051 10050 10050 10050 10050 10050 10050 10050 10050 10049 10049 10050 10050 10050 10050 10051 10051 10052 10053 10053 10054 10055 10055 10056 10058 10058 10060 10060
10176 10173 10169 10165 10161 10158 10155 10150 10146 10143 10140 10136 10133 10130 10127 10125 10121 10119 10116 10113 10110 10107 10104 10101 10098 10095 10092 10090 10088 10086 10085 10085 10083 10080 10078 10075 10072 10070 10069 10068 10065 10063 10061 10061 10060 10059 10057 10055 10053 10052 10051 10050 10049 10048 10048 10048 10047 10046 10046 10046 10046 10045 10045 10045 10045 10045 10045 10045 10045 10045 10045 10045 10046 10046 10047 10048 10048 10049 10050 10050 10051 10051 10053 10054 10055 10056
10168 10164 10160 10156 10152 10148 10144 10140 10137 10134 10131 10127 10124 10121 10118 10116 10113 10110 10108 10105 10102 10100 10096 10094 10091 10088 10086 10084 10082 10081 10080 10078 10076 10074 10072 10070 10068 10065 10064 10062 10060 10058 10056 10056 10055 10054 10052 10050 10048 10046 10046 10045 10044 10044 10043 10043 10043 10042 10042 10041 10041 10041 10041 10041 10041 10041 10041 10041 10041 10041 10041 10041 10041 10042 10043 10043 10044 10045 10045 10046 10046 10047 10048 10049 10050 10051
10158 10154 10150 10146 10141 10138 10135 10131 10128 10125 10121 10118 10115 10113 10110 10108 10105 10103 10100 10098 10095 10092 10090 10087 10085 10083 10080 10078 10076 10075 10074 10072 10070 10068 10066 10065 10063 10061 10058 10057 10055 10053 10052 10051 10050 10049 10047 10045 10043 10042 10041 10040 10040 10040 10040 10039 10039 10038 10038 10038 10038 10038 10037 10037 10037 10037 10037 10037 10037 10037 10037 10038 10038 10038 10038 10039 10040 10041 10041 10041 10042 10043 10044 10045 10046 10047
10150 10145 10141 10136 10133 10129 10126 10123 10120 10116 10113 10110 10108 10105 10103 10101 10098 10096 10093 10091 10088 10085 10083 10081 10079 10077 10075 10073 10071 10070 10068 10066 10065 10063 10061 10060 10058 10056 10054 10052 10050 10049 10048 10046 10046 10045 10043 10041 10039 10038 10036 10036 10036 10036 10035 10035 10035 10035 10035 10035 10034 10034 10033 10033 10033 10033 10033 10033 10033 10033 10034 10034 10034 10035 10035 10035 10036 10036 10037 10038 10038 10039 10040 10041 10042 10043
10143 10138 10133 10129 10125 10121 10118 10115 10112 10109 10106 10103 10100 10098 10096 10094 10091 10089 10086 10085 10082 10080 10077 10075 10073 10071 10070 10067 10065 10064 10063 10061 10060 10058 10056 10055 10053 10051 10049 10047 10046 10045 10043 10043 10041 10040 10038 10036 10035 10033 10033 10032 10032 10032 10032 10032 10031 10031 10031 10031 10030 10030 10030 10030 10030 10030 10030 10030 10030 10030 10030 10030 10031 10031 10031 10031 10032 10033 10034 10035 10035 10036 10036 10038 10039 10040
10135 10130 10126 10121 10118 10115 10111 10108 10105 10102 10099 10096 10094 10091 10090 10088 10085 10083 10081 10079 10076 10074 10071 10070 10068 10066 10065 10063 10061 10059 10058 10056 10055 10053 10051 10050 10048 10046 10045 10043 10041 10040 10040 10038 10037 10036 10034 10032 10031 10030 10029 10029 10028 10028 10028 10028 10028 10028 10028 10027 10027 10027 10027 10027 10027 10027 10027 10027 10027 10027 10027 10027 10028 10028 10028 10029 10029 10030 10031 10031 10032 10033 10034 10035 10036 10037
10128 10123 10119 10115 10111 10108 10105 10102 10099 10096 10093 10091 10088 10086 10083 10081 10080 10078 10075 10073 10071 10069 10066 10065 10063 10061 10060 10058 10056 10055 10053 10051 10050 10049 10047 10045 10043 10041 10040 10039 10037 10036 10036 10035 10034 10032 10030 10028 10027 10026 10026 10025 10025 10025 10025 10025 10025 10025 10024 10024 10024 10024 10024 10024 10024 10024 10024 10024 10024 10024 10024 10025 10025 10025 10025 10026 10026 10027 10028 10028 10030 10030 10031 10032 10033 10035
10121 10116 10113 10109 10106 10103 10099 10096 10093 10090 10087 10085 10083 10080 10078 10076 10074 10072 10070 10068 10066 10064 10062 10060 10058 10056 10055 10054 10053 10051 10048 10047 10046 10045 10043 10041 10040 10038 10036 10035 10034 10033 10032 10031 10030 10029 10027 10025 10023 10023 10022 10022 10022 10021 10021 10021 10021 10021 10021 10021 10021 10021 10021 10021 10021 10021 10021 10021 10021 10021 10021 10022 10022 10023 10023 10023 10024 10025 10025 10026 10027 10028 10028 10030 10031 10032
10113 10110 10106 10103 10100 10096 10093 10090 10087 10085 10082 10080 10077 10075 10073 10071 10068 10066 10065 10063 10061 10059 10057 10055 10053 10052 10051 10050 10048 10046 10045 10043 10041 10040 10039 10038 10036 10034 10033 10031 10030 10029 10028 10027 10026 10025 10024 10022 10020 10020 10019 10019 10019 10018 10018 10018 10018 10018 10018 10018 10018 10018 10018 10018 10018 10018 10018 10018 10019 10019 10019 10020 10020 10020 10021 10021 10021 10022 10023 10024 10025 10025 10026 10027 10028 10029
10106 10103 10100 10096 10093 10090 10087 10084 10081 10079 10077 10075 10072 10070 10068 10065 10063 10061 10060 10058 10056 10055 10053 10051 10050 10048 10046 10045 10044 10043 10041 10039 10038 10036 10035 10034 10033 10031 10030 10028 10027 10026 10025 10024 10023 10022 10021 10019 10018 10016 10016 10016 10016 10015 10015 10015 10015 10015 10015 10015 10016 10016 10016 10016 10016 10016 10016 10016 10016 10016 10017 10017 10018 10018 10018 10019 10020 10020 10021 10021 10022 10023 10024 10025 10026 10026
10100 10096 10093 10091 10088 10085 10081 10078 10076 10074 10071 10070 10067 10065 10063 10061 10059 10057 10055 10053 10051 10050 10048 10047 10046 10044 10043 10042 10040 10039 10037 10035 10034 10033 10031 10031 10029 10028 10026 10025 10024 10023 10022 10021 10020 10019 10017 10016 10015 10014 10013 10013 10013 10013 10013 10013 10013 10013 10013 10013 10013 10013 10013 10013 10013 10013 10014 10014 10015 10015 10015 10015 10016 10016 10016 10016 10017 10018 10019 10020 10020 10021 10022 10023 10023 10025
10093 10090 10088 10085 10081 10078 10076 10073 10071 10068 10066 10065 10062 10060 10058 10056 10055 10053 10051 10049 10048 10046 10045 10043 10041 10041 10040 10038 10037 10035 10033 10032 10030 10029 10028 10027 10026 10025 10023 10022 10021 10021 10020 10018 10017 10016 10015 10013 10012 10011 10011 10010 10010 10010 10010 10010 10010 10010 10010 10010 10010 10011 10011 10011 10011 10011 10011 10012 10013 10013 10013 10013 10014 10014 10015 10015 10015 10016 10017 10018 10018 10019 10020 10021 10021 10023
10088 10085 10082 10079 10076 10073 10071 10068 10066 10064 10061 10060 10058 10056 10054 10052 10050 10048 10046 10045 10043 10042 10041 10040 10038 10037 10036 10035 10033 10032 10030 10028 10027 10026 10025 10024 10023 10022 10021 10020 10018 10018 10017 10016 10015 10013 10012 10011 10010 10008 10008 10008 10008 10007 10007 10007 10007 10008 10008 10008 10008 10008 10008 10009 10009 10010 10010 10010 10011 10011 10011 10011 10012 10012 10013 10013 10013 10014 10015 10015 10016 10017 10018 10019 10020 10021
10082 10079 10076 10073 10071 10068 10066 10063 10061 10059 10057 10055 10053 10051 10050 10048 10046 10045 10043 10041 10040 10038 10037 10036 10035 10033 10033 10031 10030 10028 10027 10025 10024 10023 10022 10021 10020 10020 10018 10017 10016 10015 10015 10013 10012 10011 10010 10008 10007 10006 10005 10005 10005 10005 10005 10005 10005 10005 10005 10005 10006 10006 10006 10007 10007 10008 10008 10008 10009 10010 10010 10010 10010 10011 10011 10011 10011 10012 10013 10013 10014 10015 10016 10017 10018 10019
10076 10074 10071 10068 10066 10063 10061 10059 10057 10055 10053 10051 10050 10048 10046 10044 10042 10041 10039 10038 10036 10035 10034 10033 10031 10030 10030 10028 10027 10025 10024 10023 10021 10020 10019 10018 10017 10016 10015 10015 10013 10013 10011 10011 10010 10009 10008 10006 10005 10005 10003 10003 10003 10003 10003 10003 10003 10003 10003 10003 10003 10004 10005 10005 10006 10006 10006 10007 10007 10008 10008 10008 10009 10009 10010 10010 10010 10010 10011 10011 10013 10013 10015 10015 10016 10018
10071 10069 10066 10064 10061 10059 10057 10055 10053 10051 10049 10047 10045 10043 10042 10040 10038 10036 10035 10034 10033 10031 10030 10030 10028 10027 10026 10025 10024 10023 10021 10020 10019 10018 10016 10015 10015 10013 10013 10012 10011 10010 10010 10008 10008 10007 10006 10005 10003 10003 10001 10001 10000 10000 10000 10000 10000 10000 10001 10001 10001 10002 10003 10003 10004 10005 10005 10005 10006 10006 10006 10007 10007 10008 10008 10008 10008 10009 10010 10010 10011 10011 10013 10014 10015 10016
10066 10064 10061 10059 10057 10055 10053 10051 10049 10047 10045 10043 10041 10040 10038 10036 10035 10033 10032 10031 10030 10028 10027 10026 10025 10024 10023 10022 10021 10020 10019 10017 10016 10015 10014 10013 10012 10011 10010 10010 10009 10008 10007 10006 10006 10005 10004 10003 10002 10001 10000 10000 9999 9998 9998 9998 9998 9998 9999 9999 10000 10000 10001 10001 10002 10003 10003 10004 10004 10005 10005 10005 10006 10006 10006 10006 10007 10008 10008 10008 10009 10010 10011 10012 10013 10015
10062 10060 10057 10055 10053 10051 10049 10047 10045 10043 10041 10040 10038 10036 10035 10033 10031 10030 10028 10027 10026 10025 10024 10023 10022 10021 10020 10019 10018 10017 10016 10015 10013 10012 10011 10010 10010 10008 10008 10007 10006 10006 10005 10005 10003 10003 10002 10001 10001 10000 9999 9998 9998 9997 9996 9996 9996 9996 9996 9997 9997 9998 9999 10000 10000 10001 10001 10002 10003 10003 10004 10004 10005 10005 10005 10005 10006 10006 10006 10007 10008 10008 10010 10011 10011 10013
10058 10055 10053 10051 10049 10047 10045 10043 10041 10040 10038 10036 10035 10033 10031 10030 10028 10026 10025 10025 10023 10022 10021 10020 10020 10018 10017 10016 10015 10015 10013 10012 10011 10010 10009 10008 10007 10006 10005 10005 10004 10003 10003 10002 10001 10001 10000 10000 9999 9998 9998 9997 9996 9996 9995 9995 9994 9994 9994 9995 9995 9996 9996 9997 9998 9999 10000 10001 10001 10002 10002 10003 10003 10004 10004 10005 10005 10005 10006 10006 10006 10007 10008 10009 10010 10011
10053 10051 10049 10046 10045 10043 10041 10040 10038 10036 10035 10033 10031 10029 10028 10026 10025 10024 10023 10021 10020 10020 10018 10017 10016 10016 10015 10014 10013 10012 10011 10010 10008 10008 10006 10006 10005 10004 10003 10003 10001 10001 10000 10000 10000 9999 9998 9998 9998 9997 9996 9996 9995 9995 9995 9994 9993 9993 9993 9993 9993 9994 9995 9995 9996 9996 9998 9998 10000 10000 10001 10001 10002 10003 10003 10004 10004 10005 10005 10005 10006 10006 10006 10008 10008 10010
10048 10046 10045 10043 10041 10039 10038 10036 10035 10033 10031 10030 10028 10026 10025 10023 10022 10021 10020 10019 10018 10016 10015 10015 10014 10013 10012 10011 10010 10010 10008 10008 10006 10006 10005 10004 10003 10002 10001 10000 10000 9999 9998 9998 9998 9997 9996 9996 9996 9995 9995 9995 9995 9994 9994 9993 9993 9992 9991 9991 9991 9991 9992 9992 9993 9994 9995 9996 9997 9998 9999 10000 10000 10001 10002 10003 10003 10004 10005 10005 10005 10005 10006 10006 10008 10008
10045 10043 10041 10039 10037 10036 10034 10033 10031 10030 10028 10026 10025 10023 10021 10020 10019 10018 10017 10016 10015 10014 10013 10012 10011 10011 10010 10008 10008 10007 10006 10005 10005 10003 10003 10001 10001 10000 10000 9998 9998 9997 9996 9996 9996 9995 9995 9995 9994 9994 9993 9993 9993 9993 9993 9992 9991 9991 9991 9990 9990 9990 9990 9990 9990 9991 9992 9993 9994 9995 9996 9998 9998 10000 10001 10001 10003 10003 10004 10004 10005 10005 10005 10006 10006 10008
10040 10038 10036 10035 10033 10032 10031 10029 10028 10026 10025 10023 10021 10020 10019 10018 10016 10015 10015 10013 10012 10011 10010 10010 10008 10008 10007 10006 10005 10005 10004 10003 10002 10001 10001 10000 9999 9998 9998 9997 9996 9996 9995 9995 9995 9994 9993 9993 9993 9992 9992 9991 9991 9991 9991 9991 9991 9990 9990 9990 9989 9988 9988 9988 9988 9988 9990 9990 9991 9992 9994 9995 9996 9998 9999 10000 10001 10002 10003 10003 10004 10004 10005 10005 10006 10007
10036 10035 10033 10031 10030 10029 10027 10026 10025 10023 10021 10020 10019 10017 10016 10015 10014 10013 10011 10011 10010 10009 10008 10007 10006 10005 10005 10003 10003 10002 10001 10001 10000 10000 9999 9998 9997 9996 9996 9995 9995 9994 9994 9993 9993 9993 9992 9992 9991 9991 9991 9990 9990 9990 9990 9990 9989 9989 9988 9988 9988 9987 9987 9987 9986 9986 9987 9988 9988 9990 9991 9992 9994 9995 9996 9998 9999 10000 10001 10002 10003 10003 10005 10005 10006 10006
10033 10031 10030 10028 10027 10026 10024 10023 10021 10020 10018 10017 10016 10015 10013 10012 10011 10010 10009 10008 10007 10006 10005 10005 10004 10003 10002 10001 10001 10000 10000 9999 9998 9997 9996 9996 9995 9995 9994 9993 9993 9993 9992 9992 9991 9991 9991 9990 9990 9990 9989 9989 9989 9989 9988 9988 9988 9987 9987 9986 9986 9986 9986 9985 9985 9985 9985 9985 9986 9986 9988 9989 9991 9992 9994 9995 9997 9998 9999 10000 10001 10003 10004 10005 10005 10006
10030 10028 10026 10025 10024 10023 10021 10020 10018 10017 10016 10015 10013 10012 10011 10010 10009 10008 10007 10006 10005 10004 10003 10003 10001 10001 10000 10000 9998 9998 9997 9996 9996 9995 9995 9994 9993 9993 9992 9991 9991 9991 9990 9990 9990 9990 9989 9988 9988 9988 9988 9987 9987 9987 9986 9986 9986 9986 9985 9985 9985 9985 9984 9984 9984 9984 9984 9984 9984 9985 9985 9986 9988 9990 9991 9993 9994 9996 9997 9998 10000 10001 10003 10004 10005 10005
10026 10025 10023 10022 10021 10020 10018 10017 10016 10015 10013 10012 10011 10010 10008 10007 10006 10005 10005 10003 10003 10001 10001 10000 10000 9999 9998 9997 9996 9996 9995 9995 9994 9993 9993 9992 9991 9990 9990 9990 9989 9989 9988 9988 9988 9988 9987 9986 9986 9986 9985 9985 9985 9985 9985 9984 9984 9984 9983 9983 9983 9983 9983 9982 9982 9982 9982 9982 9982 9983 9983 9984 9985 9986 9988 9990 9991 9993 9995 9996 9998 10000 10001 10002 10003 10003